Regional Weather Roundup
Issued by NWS Albany, NY

Home | Current Version | Previous Version | Text Only | Print | Product List | Glossary On
Versions: 1 2 3 4 5 6 7 8 9 10 11 12 13 14 15 16 17 18 19 20 21 22 23 24 25 26 27 28
000
ASUS41 KALY 040110
RWRALY

NEW YORK STATE HOURLY WEATHER ROUNDUP
NATIONAL WEATHER SERVICE ALBANY NY
900 PM EDT TUE MAY 03 2016

NOTE: "FAIR" INDICATES FEW OR NO CLOUDS BELOW 12,000 FEET WITH NO
SIGNIFICANT WEATHER AND/OR NO OBSTRUCTIONS TO VISIBILITY.

NYZ032-033-038>043-046>054-057>066-NYZ062>081-082-084-040200-
EAST


CITY           SKY/WX    TMP DP  RH WIND       PRES   REMARKS
ALBANY         LGT RAIN  52  43  71 CALM      29.85R
GLENS FALLS    CLOUDY    53  39  59 E3        29.84R
POUGHKEEPSIE   CLOUDY    53  50  89 NW3       29.84R FOG
NEWBURGH       CLOUDY    50  50 100 NE6       29.85R FOG
MONTGOMERY     CLOUDY    51  50  96 CALM      29.84R
WHITE PLAINS   FOG       49  48  97 SE5       29.85R VSB 3/4
ISLIP          DRIZZLE   49  47  93 SE8       29.86R FOG
NEW YORK CITY  DRIZZLE   52  52 100 NE7       29.84S FOG
CENTRAL PARK   CLOUDY    52  49  89 E5        29.87R
$$

NYZ005>009-017-018-044>046-055-056-040200-
CENTRAL


CITY           SKY/WX    TMP DP  RH WIND       PRES   REMARKS
FULTON         CLOUDY    53  41  63 CALM      29.81S
SYRACUSE       CLOUDY    52  41  66 N9        29.80R
ROME           CLOUDY    52  44  74 E6        29.82R
ELMIRA         CLOUDY    51  43  74 CALM      29.80S
BINGHAMTON     CLOUDY    46  46 100 CALM      29.81R
MONTICELLO     CLOUDY    46  46 100 E3        29.84S
$$

NYZ026>034-041>043-087-040200-
NORTH


CITY           SKY/WX    TMP DP  RH WIND       PRES   REMARKS
WATERTOWN      CLOUDY    51  40  65 SW6       29.81R
FORT DRUM      NOT AVBL
MASSENA        MOCLDY    49  36  61 NE8       29.83S
SARANAC LAKE   CLEAR     42  35  76 NE6       29.81R
PLATTSBURGH    NOT AVBL
$$

NYZ001>004-010>016-019>021-085-040200-
WEST


CITY           SKY/WX    TMP DP  RH WIND       PRES   REMARKS
NIAGARA FALLS  CLOUDY    51  40  65 W7        29.80R
BUFFALO        MOCLDY    48  41  76 SW12      29.81R
DUNKIRK        CLEAR     45  39  79 SW7       29.83S
JAMESTOWN      CLOUDY    48  41  76 W3        29.81S
WELLSVILLE     LGT RAIN  48  41  76 NW8       29.81R
ROCHESTER      CLOUDY    53  36  52 CALM      29.81R
PENN YAN       CLOUDY    51  44  77 CALM      29.81R
$$

             KEY
       WCI = WIND CHILL INDEX
       VSB = VISIBILITY
       HX  = HEAT INDEX
$$




USA.gov is the U.S. government's official web portal to all federal, state and local government web resources and services.